Погода в Каршах

Узбекистан     41°18′36″N   69°32′15″E
темп.,
°C
ветер,
м/с
пор.,
м/с
влажн.,
%
обл.,
%
осадки,
мм/ч
давл.,
гПа
погр.,
м
27 февраля, сб
сб2723:00−6ссв2270100 0.0 103155
02:00−5с2266100 0.0 102939
05:00−4ссз2267100 0.0 102950
08:00−3ссв0169100 0.0 102937
11:00−1ююв1255100 0.0 1030287
14:00+3ююв5564100 0.0 10291139
17:00+2ю336268 0.0 102974
20:00−1в23602 0.0 103222
28 февраля, вс
вс2823:00−1всв34491 0.0 103130
02:00−1св34530 0.0 102947
05:00−2в12560 0.0 102822
08:00−1в11570 0.0 102722
11:00+4с11520 0.0 1024186
14:00+7с11460 0.0 1021288
17:00+6с12570 0.0 102122
20:00+2св12680 0.0 102222
1 марта, пн
пн123:00+2св126246 0.0 102222
02:00+2св1154100 0.0 102122
05:00+2всв0152100 0.0 102122
08:00+4св2247100 0.0 102122
11:00+11зсз113874 0.0 1020183
14:00+14св22330 0.0 1019295
17:00+13св12470 0.0 101923
20:00+8вюв22410 0.0 102122
2 марта, вт
вт223:00+8в33350 0.0 102122
02:00+8в123833 0.0 102122
05:00+8ссв224067 0.0 102122
08:00+8с2246100 0.0 102226
11:00+14с3329100 0.0 1022436
14:00+15сз3326100 0.0 1020615
17:00+12сз3439100 0.0 1020153
20:00+10св3452100 0.0 102271
3 марта, ср
ср323:00+10св4554100 0.0 102273
02:00+10з0258100 0.0 102124
05:00+7ююв1182100 1.2 102124
08:00+7юв5781100 1.2 1021312
11:00+8ююв4577100 1.4 1021392
14:00+8ссз2280100 0.9 1019251
17:00+7св2390100 6.0 1020270
20:00+8вюв6877100 2.2 1020237